DELTA 1 DEB, 18600

Orbit data source: Space-Track

DELTA 1 DEB, 18600 is space debris in LEO originally from a launch on Thu, 29 Jul 1976 UTC launched from the Air Force Western Test Range (AFWTR). Debris objects in space refer to the collection of defunct objects orbiting the Earth. Examples of debris include non-operational satellites, rocket bodies, and fragments generated from explosions, collisions, or faulty payload assembly.

Loading next visibility...
Identifier
18600, 1976-077FF
Orbit
LEO
Country
Flag of USUS
Related business
Manufacturer
Unknown
Mission
Spacecraft
Bus & Motor
Unknown
Mass
Unknown
Launch date (UTC)
1976-07-29 (50 years ago)
Launch vehicle
Unknown
Launch site
Air Force Western Test Range (AFWTR)
Object type
Payload
Rocket body
Debris
Shape & HBR
Unknown shape, 1.1 m
Radar Cross Section
Medium (>0.1 m² and <1 m²)

Expand to show TLE details & history
Last TLE update: 15 hours ago

TLE from 15 hours ago
0 DELTA 1 DEB
1 18600U 76077FF  26104.23487209 -.00000325  00000-0 -71185-2 0  9996
2 18600 102.0462 202.2246 0790075 146.2097 248.3914 10.91726479461229
Epoch: 2026-04-14T05:38Z
TLE epoch observation values (Epoch: 2026-04-14T05:38:12.948Z)
Latitude
25.90651°
Longitude
-90.66683°
Altitude
2,501.94 km
Speed
6.587 km/s
True Right ascension
13h 05m 12s
True Declination
25° 47' 53"
Sunlit
Object was in full shadow at epoch
Visualization orbit readout
Latitude
Unknown
Longitude
Unknown
Altitude
Unknown
Speed
Unknown
Apparent Right ascension
Unknown
Apparent Declination
Unknown
Sunlit
N/A
Visualization observer readout
Local Sidereal Time
03:30:33
Azimuth
Unknown
Elevation
Unknown
Doppler factor
Unknown
Orbital elements
Apogee altitude
2,880.991 km
Perigee altitude
1,525.04 km
Semi-major axis
8,581.153 km
Eccentricity
0.07901
Inclination
102.0462°
RAAN
202.2246°
Arg. of periapsis
146.2097°
True anomaly
240.29674°
Mean anomaly
248.3914°
Eccentric anomaly
244.312°
Mean motion
2.73039 °/min
Orbital period
131.85 mins
BSTAR
-0.0071185
Loading maneuver chart data...
Computing Atmospheric mass density...
Loading historical data...
Loading historical data...
Loading historical data...
Loading historical data...
Loading historical data...
Loading historical data...
Loading historical data...

Documentation

Showing up to 5 results
|